| time (UTC) | temp F | wind direction | speed MPH | gust MPH | rain 1hr in | rain 24hr in | rain mn in | humidity % | barometer mb |
| 20260506023619 | 68 | 31 | 8.0 | 12.0 | 0.00 | 0.14 | 0.13 | 92 | 1027.5 |
| 20260506023117 | 68 | 46 | 8.0 | 12.0 | 0.00 | 0.14 | 0.13 | 92 | 1027.6 |
| 20260506022611 | 68 | 44 | 6.0 | 15.0 | 0.00 | 0.14 | 0.13 | 92 | 1027.6 |
| 20260506022107 | 68 | 59 | 6.0 | 16.0 | 0.00 | 0.14 | 0.13 | 93 | 1027.6 |
| 20260506021608 | 68 | 44 | 9.0 | 16.0 | 0.00 | 0.14 | 0.13 | 93 | 1027.6 |
| 20260506021107 | 68 | 35 | 5.0 | 13.0 | 0.00 | 0.14 | 0.13 | 93 | 1027.6 |
| 20260506020558 | 68 | 83 | 8.0 | 16.0 | 0.00 | 0.14 | 0.13 | 93 | 1027.6 |
| 20260506020054 | 68 | 102 | 8.0 | 16.0 | 0.00 | 0.14 | 0.13 | 94 | 1027.6 |
| 20260506015551 | 68 | 51 | 6.0 | 13.0 | 0.00 | 0.14 | 0.13 | 93 | 1027.6 |
| 20260506015049 | 67 | 26 | 9.0 | 12.0 | 0.00 | 0.14 | 0.13 | 94 | 1027.7 |
| 20260506014540 | 67 | 37 | 6.0 | 13.0 | 0.00 | 0.14 | 0.13 | 94 | 1027.7 |
| 20260506014052 | 67 | 54 | 8.0 | 14.0 | 0.00 | 0.14 | 0.13 | 94 | 1027.8 |
| 20260506014042 | 67 | 50 | 9.0 | 14.0 | 0.00 | 0.14 | 0.13 | 94 | 1027.8 |
| 20260506013040 | 67 | 36 | 11.0 | 14.0 | 0.00 | 0.14 | 0.13 | 93 | 1027.9 |
| 20260506012534 | 67 | 27 | 6.0 | 16.0 | 0.00 | 0.14 | 0.13 | 94 | 1027.9 |
| 20260506012030 | 68 | 31 | 11.0 | 16.0 | 0.00 | 0.14 | 0.13 | 94 | 1027.9 |
| 20260506011527 | 67 | 76 | 6.0 | 14.0 | 0.00 | 0.14 | 0.13 | 94 | 1027.8 |
| 20260506011022 | 67 | 30 | 7.0 | 13.0 | 0.00 | 0.14 | 0.13 | 94 | 1027.8 |
| 20260506010517 | 67 | 59 | 8.0 | 13.0 | 0.00 | 0.14 | 0.13 | 94 | 1027.8 |
| 20260506010015 | 67 | 27 | 7.0 | 15.0 | 0.00 | 0.14 | 0.13 | 94 | 1027.9 |
| 20260506005748 | 67 | 23 | 8.0 | 15.0 | 0.00 | 0.14 | 0.13 | 94 | 1027.9 |
| 20260506005244 | 67 | 59 | 8.0 | 15.0 | 0.00 | 0.14 | 0.13 | 94 | 1028.0 |
| 20260506004506 | 67 | 20 | 11.0 | 16.0 | 0.00 | 0.14 | 0.13 | 94 | 1028.1 |
| 20260506004239 | 67 | 38 | 12.0 | 16.0 | 0.00 | 0.14 | 0.13 | 94 | 1028.1 |
| 20260506003458 | 67 | 31 | 11.0 | 16.0 | 0.00 | 0.14 | 0.13 | 94 | 1028.2 |
| 20260506002959 | 67 | 28 | 12.0 | 15.0 | 0.00 | 0.14 | 0.13 | 94 | 1028.2 |
| 20260506002454 | 67 | 34 | 11.0 | 15.0 | 0.00 | 0.14 | 0.13 | 94 | 1028.3 |
| 20260506001950 | 67 | 35 | 8.0 | 12.0 | 0.00 | 0.14 | 0.13 | 94 | 1028.4 |
| 20260506001451 | 67 | 42 | 8.0 | 12.0 | 0.00 | 0.14 | 0.13 | 94 | 1028.5 |
| 20260506000946 | 66 | 38 | 8.0 | 15.0 | 0.00 | 0.14 | 0.13 | 94 | 1028.7 |
| 20260506000446 | 66 | 40 | 8.0 | 15.0 | 0.00 | 0.14 | 0.13 | 94 | 1028.8 |
| 20260505235948 | 66 | 49 | 7.0 | 13.0 | 0.00 | 0.14 | 0.13 | 94 | 1028.7 |
| 20260505235443 | 66 | 53 | 5.0 | 13.0 | 0.01 | 0.14 | 0.13 | 94 | 1028.8 |
| 20260505235218 | 66 | 45 | 6.0 | 13.0 | 0.02 | 0.14 | 0.13 | 95 | 1028.9 |
| 20260505234442 | 65 | 26 | 4.0 | 11.0 | 0.02 | 0.14 | 0.13 | 96 | 1028.9 |
| 20260505234216 | 65 | 57 | 6.0 | 11.0 | 0.03 | 0.14 | 0.13 | 96 | 1028.9 |
| 20260505233442 | 65 | 34 | 5.0 | 10.0 | 0.03 | 0.14 | 0.13 | 96 | 1028.9 |
| 20260505232936 | 64 | 34 | 6.0 | 10.0 | 0.03 | 0.14 | 0.13 | 97 | 1028.8 |
| 20260505232436 | 64 | 44 | 4.0 | 9.0 | 0.03 | 0.14 | 0.13 | 97 | 1028.9 |
| 20260505231929 | 64 | 47 | 4.0 | 9.0 | 0.03 | 0.14 | 0.13 | 98 | 1029.0 |
| 20260505231425 | 63 | 43 | 3.0 | 8.0 | 0.03 | 0.14 | 0.13 | 97 | 1029.1 |
| 20260505230925 | 62 | 61 | 3.0 | 11.0 | 0.03 | 0.14 | 0.13 | 97 | 1029.1 |
| 20260505230421 | 62 | 67 | 4.0 | 13.0 | 0.03 | 0.14 | 0.13 | 97 | 1029.2 |
| 20260505230152 | 62 | 26 | 6.0 | 13.0 | 0.02 | 0.13 | 0.13 | 97 | 1029.4 |
| 20260505225421 | 62 | 17 | 9.0 | 13.0 | 0.02 | 0.13 | 0.13 | 97 | 1029.4 |
| 20260505224913 | 63 | 24 | 8.0 | 12.0 | 0.02 | 0.13 | 0.12 | 96 | 1029.5 |
| 20260505224413 | 63 | 17 | 8.0 | 12.0 | 0.00 | 0.11 | 0.10 | 95 | 1029.6 |
| 20260505223910 | 65 | 17 | 9.0 | 11.0 | 0.00 | 0.11 | 0.10 | 94 | 1029.6 |
| 20260505223405 | 65 | 106 | 3.0 | 9.0 | 0.00 | 0.11 | 0.10 | 94 | 1029.5 |
| 20260505223140 | 65 | 113 | 5.0 | 9.0 | 0.00 | 0.11 | 0.10 | 93 | 1029.4 |
| 20260505222404 | 65 | 115 | 3.0 | 7.0 | 0.00 | 0.11 | 0.10 | 93 | 1029.4 |
| 20260505221901 | 65 | 32 | 4.0 | 7.0 | 0.00 | 0.11 | 0.10 | 94 | 1029.5 |
| 20260505221403 | 65 | 19 | 4.0 | 6.0 | 0.00 | 0.11 | 0.10 | 95 | 1029.5 |
| 20260505220900 | 64 | 38 | 3.0 | 6.0 | 0.00 | 0.11 | 0.10 | 95 | 1029.5 |
| 20260505220409 | 63 | 46 | 6.0 | 9.0 | 0.00 | 0.11 | 0.10 | 96 | 1029.6 |
| 20260505220402 | 64 | 36 | 4.0 | 9.0 | 0.00 | 0.11 | 0.10 | 96 | 1029.6 |
| 20260505215352 | 63 | 50 | 3.0 | 9.0 | 0.00 | 0.11 | 0.10 | 97 | 1029.6 |
| 20260505214852 | 63 | 59 | 4.0 | 9.0 | 0.00 | 0.11 | 0.10 | 98 | 1029.7 |
| 20260505214352 | 62 | 58 | 5.0 | 9.0 | 0.00 | 0.11 | 0.10 | 98 | 1029.6 |
| 20260505213848 | 63 | 22 | 4.0 | 8.0 | 0.00 | 0.11 | 0.10 | 98 | 1029.6 |
| 20260505213348 | 63 | 77 | 2.0 | 8.0 | 0.00 | 0.11 | 0.10 | 99 | 1029.6 |
| 20260505212848 | 63 | 53 | 4.0 | 8.0 | 0.00 | 0.11 | 0.10 | 98 | 1029.6 |
| 20260505212343 | 63 | 53 | 4.0 | 8.0 | 0.00 | 0.11 | 0.10 | 98 | 1029.6 |
| 20260505211846 | 63 | 110 | 2.0 | 6.0 | 0.00 | 0.11 | 0.10 | 98 | 1029.7 |
| 20260505211340 | 63 | 100 | 3.0 | 7.0 | 0.00 | 0.11 | 0.10 | 98 | 1029.7 |
| 20260505210837 | 63 | 101 | 2.0 | 9.0 | 0.00 | 0.11 | 0.10 | 99 | 1029.8 |
| 20260505210342 | 63 | 126 | 4.0 | 9.0 | 0.00 | 0.11 | 0.10 | 99 | 1029.7 |
| 20260505205834 | 63 | 83 | 3.0 | 8.0 | 0.00 | 0.11 | 0.10 | 99 | 1029.6 |
| 20260505205330 | 62 | 107 | 4.0 | 9.0 | 0.00 | 0.11 | 0.10 | 99 | 1029.6 |
| 20260505204831 | 62 | 116 | 4.0 | 11.0 | 0.00 | 0.11 | 0.10 | 99 | 1029.4 |
| 20260505204601 | 62 | 78 | 3.0 | 11.0 | 0.00 | 0.11 | 0.10 | 99 | 1029.5 |
| 20260505203825 | 63 | 100 | 4.0 | 9.0 | 0.00 | 0.11 | 0.10 | 99 | 1029.5 |
| 20260505203322 | 63 | 113 | 4.0 | 7.0 | 0.00 | 0.11 | 0.10 | 99 | 1029.4 |
| 20260505202820 | 63 | 119 | 4.0 | 9.0 | 0.00 | 0.11 | 0.10 | 99 | 1029.4 |
| 20260505202319 | 63 | 94 | 4.0 | 9.0 | 0.00 | 0.11 | 0.10 | 99 | 1029.4 |
| 20260505201819 | 63 | 114 | 3.0 | 9.0 | 0.00 | 0.11 | 0.10 | 99 | 1029.4 |
| 20260505201319 | 63 | 59 | 3.0 | 7.0 | 0.00 | 0.11 | 0.10 | 99 | 1029.4 |
| 20260505200812 | 62 | 126 | 3.0 | 7.0 | 0.00 | 0.11 | 0.10 | 99 | 1029.2 |
| 20260505200308 | 62 | 121 | 3.0 | 7.0 | 0.00 | 0.11 | 0.10 | 99 | 1029.2 |
| 20260505195803 | 62 | 113 | 3.0 | 6.0 | 0.00 | 0.11 | 0.10 | 99 | 1029.2 |
| 20260505195305 | 62 | 126 | 2.0 | 4.0 | 0.01 | 0.11 | 0.10 | 99 | 1029.2 |
| 20260505194802 | 62 | 94 | 1.0 | 4.0 | 0.02 | 0.11 | 0.10 | 99 | 1029.2 |
| 20260505194037 | 61 | 75 | 1.0 | 4.0 | 0.06 | 0.11 | 0.10 | 99 | 1029.1 |
| 20260505193533 | 61 | 95 | 1.0 | 3.0 | 0.06 | 0.11 | 0.10 | 99 | 1029.1 |
| 20260505193025 | 61 | 37 | 1.0 | 2.0 | 0.06 | 0.11 | 0.10 | 99 | 1029.2 |
| 20260505192250 | 61 | 37 | 1.0 | 2.0 | 0.07 | 0.11 | 0.10 | 99 | 1029.2 |
| 20260505192024 | 61 | 37 | 1.0 | 2.0 | 0.08 | 0.11 | 0.10 | 99 | 1029.2 |
| 20260505191243 | 61 | 37 | 0.0 | 2.0 | 0.09 | 0.11 | 0.10 | 99 | 1029.2 |
| 20260505190722 | 61 | 37 | 1.0 | 2.0 | 0.10 | 0.11 | 0.10 | 99 | 1029.1 |
| 20260505190223 | 61 | 37 | 1.0 | 3.0 | 0.10 | 0.11 | 0.10 | 99 | 1029.0 |
| 20260505185955 | 61 | 32 | 1.0 | 4.0 | 0.10 | 0.11 | 0.10 | 99 | 1029.0 |
| 20260505185224 | 61 | 147 | 2.0 | 4.0 | 0.09 | 0.10 | 0.09 | 99 | 1029.0 |
| 20260505184718 | 60 | 155 | 1.0 | 2.0 | 0.08 | 0.09 | 0.08 | 99 | 1029.1 |
| 20260505184445 | 60 | 155 | 1.0 | 1.0 | 0.06 | 0.07 | 0.06 | 99 | 1029.0 |
| 20260505183936 | 60 | 155 | 0.0 | 1.0 | 0.05 | 0.06 | 0.05 | 99 | 1029.0 |
| 20260505183200 | 60 | 155 | 0.0 | 1.0 | 0.05 | 0.06 | 0.05 | 99 | 1029.0 |
| 20260505182655 | 60 | 155 | 0.0 | 2.0 | 0.04 | 0.05 | 0.04 | 100 | 1028.9 |
| 20260505182427 | 59 | 155 | 1.0 | 2.0 | 0.03 | 0.04 | 0.03 | 99 | 1028.9 |
| 20260505181647 | 58 | 155 | 0.0 | 2.0 | 0.02 | 0.03 | 0.02 | 99 | 1028.9 |
| 20260505181147 | 58 | 118 | 1.0 | 2.0 | 0.01 | 0.02 | 0.01 | 99 | 1028.9 |
| 20260505180645 | 59 | 118 | 0.0 | 2.0 | 0.00 | 0.01 | 0.00 | 99 | 1028.8 |
| 20260505180140 | 59 | 118 | 1.0 | 2.0 | 0.00 | 0.01 | 0.00 | 99 | 1028.8 |
| 20260505175629 | 58 | 118 | 0.0 | 2.0 | 0.00 | 0.01 | 0.00 | 98 | 1028.8 |
| 20260505175126 | 59 | 118 | 0.0 | 1.0 | 0.00 | 0.01 | 0.00 | 99 | 1028.8 |
| 20260505174626 | 59 | 118 | 0.0 | 2.0 | 0.00 | 0.01 | 0.00 | 99 | 1028.8 |
| 20260505174105 | 58 | 118 | 0.0 | 2.0 | 0.00 | 0.01 | 0.00 | 99 | 1028.8 |
| 20260505173603 | 58 | 118 | 0.0 | 1.0 | 0.00 | 0.01 | 0.00 | 98 | 1028.8 |
| 20260505173059 | 58 | 118 | 0.0 | 1.0 | 0.00 | 0.01 | 0.00 | 98 | 1028.9 |
| 20260505172600 | 59 | 118 | 0.0 | 1.0 | 0.00 | 0.01 | 0.00 | 98 | 1028.8 |
| 20260505172054 | 59 | 118 | 0.0 | 1.0 | 0.00 | 0.01 | 0.00 | 98 | 1028.9 |
| 20260505172049 | 59 | 118 | 0.0 | 1.0 | 0.00 | 0.01 | 0.00 | 98 | 1028.8 |
| 20260505171043 | 59 | 118 | 0.0 | 1.0 | 0.00 | 0.01 | 0.00 | 98 | 1028.9 |
| 20260505170521 | 59 | 118 | 0.0 | 2.0 | 0.00 | 0.01 | 0.00 | 98 | 1029.0 |
| 20260505170017 | 59 | 118 | 0.0 | 3.0 | 0.00 | 0.01 | 0.00 | 98 | 1028.9 |
| 20260505165518 | 60 | 118 | 1.0 | 3.0 | 0.00 | 0.01 | 0.00 | 97 | 1028.9 |
| 20260505165015 | 60 | 60 | 1.0 | 2.0 | 0.00 | 0.01 | 0.00 | 97 | 1028.9 |
| 20260505164509 | 60 | 60 | 1.0 | 2.0 | 0.00 | 0.01 | 0.00 | 97 | 1028.9 |
| 20260505164013 | 60 | 60 | 0.0 | 2.0 | 0.00 | 0.01 | 0.00 | 97 | 1028.9 |
| 20260505163457 | 60 | 60 | 1.0 | 2.0 | 0.00 | 0.01 | 0.00 | 97 | 1029.0 |
| 20260505162950 | 61 | 60 | 1.0 | 2.0 | 0.00 | 0.01 | 0.00 | 97 | 1028.9 |
| 20260505162446 | 61 | 60 | 1.0 | 2.0 | 0.00 | 0.01 | 0.00 | 97 | 1029.0 |
| 20260505161937 | 61 | 60 | 0.0 | 2.0 | 0.00 | 0.01 | 0.00 | 97 | 1029.0 |
| 20260505161429 | 61 | 60 | 0.0 | 2.0 | 0.00 | 0.01 | 0.00 | 97 | 1029.0 |
| 20260505161154 | 61 | 60 | 1.0 | 4.0 | 0.00 | 0.01 | 0.00 | 97 | 1028.9 |
| 20260505160646 | 61 | 60 | 2.0 | 4.0 | 0.00 | 0.01 | 0.00 | 97 | 1029.0 |
| 20260505153348 | 62 | 94 | 1.0 | 4.0 | 0.00 | 0.01 | 0.00 | 97 | 1029.0 |
| 20260505152848 | 62 | 69 | 1.0 | 4.0 | 0.00 | 0.01 | 0.00 | 97 | 1029.0 |
| 20260505152343 | 62 | 115 | 2.0 | 3.0 | 0.00 | 0.01 | 0.00 | 97 | 1029.0 |
| 20260505152119 | 62 | 86 | 1.0 | 4.0 | 0.00 | 0.01 | 0.00 | 97 | 1029.1 |
| 20260505151336 | 62 | 98 | 1.0 | 4.0 | 0.00 | 0.01 | 0.00 | 97 | 1029.2 |
| 20260505150832 | 61 | 113 | 2.0 | 4.0 | 0.00 | 0.01 | 0.00 | 97 | 1029.2 |
| 20260505150331 | 61 | 96 | 1.0 | 3.0 | 0.00 | 0.01 | 0.00 | 97 | 1029.2 |
| 20260505130209 | 62 | 69 | 2.0 | 4.0 | 0.00 | 0.01 | 0.00 | 97 | 1030.5 |
| 20260505124657 | 62 | 93 | 1.0 | 4.0 | 0.00 | 0.01 | 0.00 | 96 | 1030.5 |
| 20260505124424 | 62 | 82 | 1.0 | 3.0 | 0.00 | 0.01 | 0.00 | 96 | 1030.5 |
| 20260505124143 | 62 | 109 | 1.0 | 3.0 | 0.00 | 0.01 | 0.00 | 96 | 1030.6 |
| 20260505123139 | 62 | 78 | 2.0 | 3.0 | 0.00 | 0.01 | 0.00 | 96 | 1030.5 |
| 20260505122629 | 62 | 53 | 1.0 | 3.0 | 0.00 | 0.01 | 0.00 | 96 | 1030.6 |
| 20260505122124 | 62 | 91 | 1.0 | 3.0 | 0.00 | 0.01 | 0.00 | 96 | 1030.7 |
| 20260505121624 | 62 | 70 | 1.0 | 3.0 | 0.00 | 0.01 | 0.00 | 97 | 1030.7 |
| 20260505121349 | 62 | 93 | 1.0 | 3.0 | 0.00 | 0.01 | 0.00 | 97 | 1030.7 |
| 20260505120613 | 61 | 101 | 1.0 | 4.0 | 0.00 | 0.01 | 0.00 | 97 | 1030.7 |
| 20260505120105 | 61 | 64 | 2.0 | 4.0 | 0.00 | 0.01 | 0.00 | 97 | 1030.8 |
| 20260505115600 | 61 | 56 | 1.0 | 4.0 | 0.00 | 0.01 | 0.01 | 97 | 1030.7 |
| 20260505115100 | 61 | 57 | 1.0 | 6.0 | 0.00 | 0.01 | 0.01 | 97 | 1030.7 |
| 20260505114820 | 61 | 92 | 2.0 | 7.0 | 0.00 | 0.01 | 0.01 | 97 | 1030.6 |
| 20260505114048 | 61 | 109 | 2.0 | 7.0 | 0.00 | 0.01 | 0.01 | 97 | 1030.7 |
| 20260505113540 | 61 | 101 | 1.0 | 6.0 | 0.00 | 0.01 | 0.01 | 97 | 1030.7 |
| 20260505113038 | 61 | 115 | 1.0 | 7.0 | 0.00 | 0.01 | 0.01 | 97 | 1030.7 |
| 20260505112537 | 61 | 112 | 3.0 | 8.0 | 0.00 | 0.01 | 0.01 | 97 | 1030.7 |
| 20260505112034 | 61 | 101 | 2.0 | 9.0 | 0.00 | 0.01 | 0.01 | 97 | 1030.7 |
| 20260505111529 | 61 | 123 | 2.0 | 9.0 | 0.00 | 0.01 | 0.01 | 97 | 1030.8 |
| 20260505111029 | 61 | 58 | 2.0 | 7.0 | 0.00 | 0.01 | 0.01 | 97 | 1030.8 |
| 20260505110533 | 61 | 106 | 2.0 | 7.0 | 0.00 | 0.01 | 0.01 | 97 | 1030.8 |
| 20260505102006 | 61 | 89 | 1.0 | 5.0 | 0.00 | 0.01 | 0.01 | 98 | 1031.3 |
| 20260505101506 | 61 | 74 | 2.0 | 5.0 | 0.00 | 0.01 | 0.01 | 98 | 1031.3 |
| 20260505101007 | 61 | 64 | 2.0 | 5.0 | 0.00 | 0.01 | 0.01 | 98 | 1031.3 |
| 20260505100508 | 60 | 40 | 2.0 | 4.0 | 0.00 | 0.01 | 0.01 | 98 | 1031.4 |
| 20260505100007 | 60 | 103 | 1.0 | 3.0 | 0.00 | 0.01 | 0.01 | 98 | 1031.3 |
| 20260505095516 | 60 | 107 | 1.0 | 3.0 | 0.00 | 0.01 | 0.01 | 98 | 1031.2 |
| 20260505095508 | 60 | 107 | 0.0 | 3.0 | 0.00 | 0.01 | 0.01 | 98 | 1031.3 |
| 20260505094457 | 60 | 89 | 1.0 | 2.0 | 0.00 | 0.01 | 0.01 | 98 | 1031.2 |
| 20260505093950 | 60 | 89 | 0.0 | 2.0 | 0.00 | 0.01 | 0.01 | 98 | 1031.2 |
| 20260505093441 | 60 | 89 | 0.0 | 1.0 | 0.00 | 0.01 | 0.01 | 98 | 1031.2 |
| 20260505092943 | 60 | 89 | 0.0 | 1.0 | 0.00 | 0.01 | 0.01 | 98 | 1031.3 |
| 20260505092440 | 60 | 89 | 0.0 | 2.0 | 0.00 | 0.01 | 0.01 | 98 | 1031.3 |
| 20260505091940 | 60 | 89 | 1.0 | 2.0 | 0.00 | 0.01 | 0.01 | 98 | 1031.2 |
| 20260505091436 | 60 | 89 | 0.0 | 2.0 | 0.00 | 0.01 | 0.01 | 98 | 1031.2 |
| 20260505091158 | 60 | 89 | 0.0 | 4.0 | 0.00 | 0.01 | 0.01 | 98 | 1031.2 |
| 20260505090430 | 60 | 89 | 1.0 | 4.0 | 0.00 | 0.01 | 0.01 | 97 | 1031.2 |
| 20260505085923 | 60 | 45 | 0.0 | 2.0 | 0.00 | 0.01 | 0.01 | 97 | 1031.1 |
| 20260505085413 | 60 | 45 | 0.0 | 2.0 | 0.00 | 0.01 | 0.01 | 97 | 1031.1 |
| 20260505084903 | 60 | 45 | 1.0 | 2.0 | 0.00 | 0.01 | 0.01 | 97 | 1031.1 |
| 20260505084359 | 60 | 76 | 1.0 | 2.0 | 0.00 | 0.01 | 0.01 | 97 | 1031.1 |
| 20260505083859 | 60 | 92 | 1.0 | 3.0 | 0.00 | 0.01 | 0.01 | 97 | 1031.0 |
| 20260505083355 | 60 | 91 | 1.0 | 4.0 | 0.00 | 0.01 | 0.01 | 97 | 1031.0 |
| 20260505082857 | 60 | 75 | 1.0 | 4.0 | 0.00 | 0.01 | 0.01 | 97 | 1031.0 |
| 20260505082354 | 60 | 44 | 1.0 | 5.0 | 0.00 | 0.01 | 0.01 | 97 | 1031.0 |
| 20260505081846 | 60 | 64 | 2.0 | 5.0 | 0.00 | 0.01 | 0.01 | 97 | 1031.0 |
| 20260505081336 | 60 | 90 | 1.0 | 7.0 | 0.00 | 0.01 | 0.01 | 97 | 1031.1 |
| 20260505080827 | 60 | 55 | 1.0 | 7.0 | 0.00 | 0.01 | 0.01 | 97 | 1031.0 |
| 20260505080322 | 60 | 41 | 1.0 | 4.0 | 0.00 | 0.01 | 0.01 | 97 | 1031.1 |
| 20260505080105 | 61 | 57 | 2.0 | 7.0 | 0.00 | 0.01 | 0.01 | 96 | 1031.1 |
| 20260505075319 | 61 | 55 | 3.0 | 7.0 | 0.00 | 0.01 | 0.01 | 97 | 1031.0 |
| 20260505074813 | 61 | 36 | 3.0 | 7.0 | 0.00 | 0.01 | 0.01 | 97 | 1031.0 |
| 20260505074312 | 61 | 79 | 2.0 | 9.0 | 0.00 | 0.01 | 0.01 | 96 | 1030.9 |
| 20260505073815 | 61 | 53 | 4.0 | 9.0 | 0.00 | 0.01 | 0.01 | 96 | 1031.0 |
| 20260505072806 | 61 | 33 | 4.0 | 6.0 | 0.00 | 0.01 | 0.01 | 96 | 1030.9 |
| 20260505072302 | 61 | 40 | 3.0 | 6.0 | 0.00 | 0.01 | 0.01 | 96 | 1030.8 |
| 20260505071758 | 61 | 115 | 4.0 | 7.0 | 0.00 | 0.01 | 0.01 | 96 | 1030.8 |
| 20260505071254 | 61 | 98 | 4.0 | 8.0 | 0.00 | 0.01 | 0.01 | 96 | 1030.8 |
| 20260505070749 | 61 | 98 | 4.0 | 8.0 | 0.00 | 0.01 | 0.01 | 96 | 1030.6 |
| 20260505070246 | 61 | 88 | 3.0 | 7.0 | 0.00 | 0.01 | 0.01 | 96 | 1030.6 |
| 20260505065741 | 61 | 89 | 4.0 | 9.0 | 0.00 | 0.01 | 0.01 | 96 | 1030.7 |
| 20260505065238 | 61 | 94 | 4.0 | 9.0 | 0.00 | 0.01 | 0.01 | 96 | 1030.7 |
| 20260505064738 | 61 | 99 | 3.0 | 9.0 | 0.00 | 0.01 | 0.01 | 96 | 1030.7 |
| 20260505064237 | 60 | 129 | 4.0 | 9.0 | 0.00 | 0.01 | 0.01 | 96 | 1030.6 |
| 20260505063738 | 60 | 90 | 4.0 | 8.0 | 0.00 | 0.01 | 0.01 | 97 | 1030.5 |
| 20260505063234 | 60 | 54 | 4.0 | 7.0 | 0.00 | 0.01 | 0.01 | 97 | 1030.5 |
| 20260505063003 | 60 | 99 | 3.0 | 7.0 | 0.00 | 0.01 | 0.01 | 96 | 1030.5 |
| 20260505062510 | 61 | 82 | 2.0 | 6.0 | 0.00 | 0.01 | 0.01 | 96 | 1030.5 |
| 20260505062227 | 61 | 112 | 3.0 | 6.0 | 0.00 | 0.01 | 0.01 | 96 | 1030.4 |
| 20260505061219 | 61 | 105 | 3.0 | 8.0 | 0.00 | 0.01 | 0.01 | 96 | 1030.5 |
| 20260505060723 | 61 | 98 | 4.0 | 8.0 | 0.00 | 0.01 | 0.01 | 96 | 1030.5 |
| 20260505060219 | 61 | 88 | 2.0 | 7.0 | 0.00 | 0.01 | 0.01 | 96 | 1030.5 |
| 20260505055717 | 61 | 63 | 3.0 | 7.0 | 0.00 | 0.01 | 0.01 | 96 | 1030.5 |
| 20260505055212 | 61 | 106 | 3.0 | 6.0 | 0.00 | 0.01 | 0.01 | 96 | 1030.5 |
| 20260505054710 | 61 | 93 | 2.0 | 7.0 | 0.00 | 0.01 | 0.01 | 96 | 1030.5 |
| 20260505054441 | 61 | 95 | 4.0 | 9.0 | 0.00 | 0.01 | 0.01 | 95 | 1030.5 |
| 20260505053701 | 61 | 97 | 2.0 | 9.0 | 0.00 | 0.01 | 0.01 | 95 | 1030.5 |
| 20260505053201 | 61 | 90 | 2.0 | 8.0 | 0.00 | 0.01 | 0.01 | 95 | 1030.5 |
| 20260505052702 | 62 | 92 | 1.0 | 5.0 | 0.00 | 0.01 | 0.01 | 95 | 1030.5 |
| 20260505052157 | 62 | 46 | 3.0 | 8.0 | 0.00 | 0.01 | 0.01 | 95 | 1030.7 |
| 20260505051658 | 62 | 92 | 4.0 | 9.0 | 0.00 | 0.01 | 0.01 | 95 | 1030.7 |
| 20260505051155 | 62 | 88 | 3.0 | 10.0 | 0.00 | 0.01 | 0.01 | 94 | 1030.8 |
| 20260505050924 | 62 | 102 | 4.0 | 10.0 | 0.00 | 0.01 | 0.01 | 94 | 1030.8 |
| 20260505050150 | 62 | 125 | 3.0 | 10.0 | 0.00 | 0.01 | 0.01 | 94 | 1030.9 |
| 20260505041627 | 62 | 86 | 4.0 | 9.0 | 0.00 | 0.01 | 0.01 | 95 | 1030.8 |
| 20260505041123 | 62 | 74 | 4.0 | 9.0 | 0.00 | 0.01 | 0.01 | 95 | 1030.8 |
| 20260505040621 | 62 | 48 | 4.0 | 11.0 | 0.00 | 0.01 | 0.01 | 96 | 1030.9 |
| 20260505040402 | 62 | 231 | 3.0 | 11.0 | 0.01 | 0.01 | 0.01 | 96 | 1030.9 |
| 20260505040357 | 62 | 98 | 6.0 | 11.0 | 0.01 | 0.01 | 0.01 | 95 | 1030.8 |
| 20260505035110 | 62 | 101 | 3.0 | 10.0 | 0.01 | 0.01 | 0.01 | 96 | 1030.8 |
| 20260505034610 | 62 | 183 | 4.0 | 12.0 | 0.01 | 0.01 | 0.01 | 96 | 1030.8 |
| 20260505034107 | 62 | 115 | 4.0 | 12.0 | 0.01 | 0.01 | 0.01 | 96 | 1030.7 |
| 20260505033602 | 62 | 120 | 4.0 | 14.0 | 0.01 | 0.01 | 0.01 | 96 | 1030.7 |
| 20260505033337 | 62 | 87 | 6.0 | 14.0 | 0.01 | 0.01 | 0.01 | 95 | 1030.6 |
| 20260505032558 | 62 | 101 | 5.0 | 11.0 | 0.01 | 0.01 | 0.01 | 95 | 1030.8 |
| 20260505032059 | 63 | 94 | 5.0 | 10.0 | 0.01 | 0.01 | 0.01 | 95 | 1030.7 |
| 20260505031559 | 63 | 114 | 5.0 | 10.0 | 0.01 | 0.01 | 0.01 | 95 | 1030.8 |
| 20260505031103 | 63 | 121 | 5.0 | 13.0 | 0.00 | 0.00 | 0.01 | 94 | 1031.0 |
| 20260505031056 | 63 | 75 | 2.0 | 11.0 | 0.01 | 0.01 | 0.01 | 94 | 1030.8 |
| 20260505030050 | 63 | 121 | 7.0 | 13.0 | 0.00 | 0.00 | 0.00 | 94 | 1030.7 |
| 20260505025547 | 63 | 86 | 6.0 | 13.0 | 0.00 | 0.00 | 0.00 | 93 | 1030.6 |
| 20260505025047 | 64 | 59 | 5.0 | 11.0 | 0.00 | 0.00 | 0.00 | 93 | 1030.6 |
| 20260505024815 | 64 | 126 | 4.0 | 11.0 | 0.00 | 0.00 | 0.00 | 93 | 1030.6 |
| 20260505024041 | 64 | 98 | 7.0 | 11.0 | 0.00 | 0.00 | 0.00 | 93 | 1030.6 |